period_start,C,m1,H,J0,J1,J2,J3,J4,J5,JA,JB,JC,JD,JJ,JK,JN,#
2016-07-13 00:01:43,-0.03,0.13,0.00,23.43,27.05,30.01,14.32,42.89,1015.16,2040.47,3490.00,3114.38,3536.07,599.49,593.82,16.08,0000 0000 0000 0000 000000
2016-07-13 00:06:44,-0.00,0.13,0.00,23.45,27.12,30.09,14.40,42.88,1015.17,2040.06,3489.69,3114.00,3535.80,599.99,594.27,16.13,0000 0000 0000 0000 000000
2016-07-13 00:11:46,0.03,0.13,0.00,23.54,27.20,30.15,14.37,42.90,1015.17,2039.99,3489.04,3113.50,3535.06,600.05,594.14,16.18,0000 0000 0000 0000 000000
2016-07-13 00:16:47,0.00,0.14,0.00,23.59,27.27,30.23,14.41,42.82,1015.26,2039.83,3488.79,3113.01,3534.60,599.93,593.99,16.23,0000 0000 0000 0000 000000
2016-07-13 00:21:49,0.03,0.13,0.00,23.56,27.34,30.30,14.39,42.84,1015.38,2039.10,3487.56,3112.13,3533.27,599.99,594.16,16.28,0000 0000 0000 0000 000000
2016-07-13 00:26:50,0.05,0.14,0.00,23.28,27.40,30.39,14.40,42.86,1015.47,2039.00,3486.07,3110.46,3531.67,599.91,594.83,16.33,0000 0000 0000 0000 000000
2016-07-13 00:31:51,0.01,0.14,0.00,22.97,27.46,30.49,14.42,42.92,1015.48,2038.90,3485.81,3110.01,3531.02,600.38,595.67,16.38,0000 0000 0000 0000 000000
2016-07-13 00:36:53,-0.03,0.14,0.00,23.40,27.51,30.50,14.45,42.84,1015.57,2038.26,3485.10,3109.61,3530.53,600.12,594.73,16.43,0000 0000 0000 0000 000000
2016-07-13 00:41:54,0.04,0.14,0.00,23.58,27.58,30.52,14.41,42.88,1015.51,2038.02,3484.64,3108.79,3529.57,600.21,594.43,16.48,0000 0000 0000 0000 000000
2016-07-13 00:46:55,0.07,0.14,0.00,23.64,27.64,30.57,14.32,42.98,1015.39,2038.00,3483.10,3107.26,3528.05,599.96,593.95,16.53,0000 0000 0000 0000 000000
2016-07-13 00:51:56,-0.01,0.14,0.00,23.70,27.69,30.64,14.40,42.88,1015.38,2037.84,3482.94,3107.00,3527.44,600.00,593.91,16.58,0000 0000 0000 0000 000000
2016-07-13 00:56:58,-0.04,0.14,0.00,23.74,27.75,30.69,14.40,42.85,1015.45,2037.15,3482.31,3106.69,3527.00,600.29,594.12,16.63,0000 0000 0000 0000 000000
2016-07-13 01:01:59,0.02,0.14,0.00,23.77,27.81,30.73,14.37,42.75,1015.41,2037.00,3482.01,3106.06,3526.57,600.23,594.01,16.68,0000 0000 0000 0000 000000
2016-07-13 01:07:00,0.00,0.14,0.00,23.78,27.86,30.77,14.36,42.70,1015.31,2036.99,3481.90,3106.00,3526.03,599.85,593.53,16.73,0000 0000 0000 0000 000000
2016-07-13 01:12:01,0.02,0.14,0.00,23.63,27.90,30.83,14.43,42.84,1015.28,2036.90,3481.12,3105.51,3525.93,600.39,594.15,16.78,0000 0000 0000 0000 000000
2016-07-13 01:17:03,-0.03,0.14,0.00,23.82,27.94,30.84,14.36,42.77,1015.27,2036.32,3481.00,3105.02,3525.22,600.04,593.63,16.83,0000 0000 0000 0000 000000
2016-07-13 01:22:04,-0.01,0.14,0.00,23.89,27.99,30.86,14.41,42.75,1015.20,2036.02,3480.85,3104.98,3525.00,599.93,593.36,16.88,0000 0000 0000 0000 000000
2016-07-13 01:27:05,0.04,0.14,0.00,23.91,28.03,30.90,14.40,42.65,1015.19,2036.00,3480.13,3104.49,3524.67,600.02,593.48,16.93,0000 0000 0000 0000 000000
2016-07-13 01:32:07,0.01,0.14,0.00,23.93,28.07,30.93,14.42,42.73,1015.19,2035.99,3480.01,3104.03,3524.06,600.36,593.65,16.98,0000 0000 0000 0000 000000
2016-07-13 01:37:08,0.01,0.14,0.00,23.98,28.11,30.96,14.34,42.92,1015.17,2035.92,3479.83,3103.80,3523.76,599.97,593.19,17.03,0000 0000 0000 0000 000000
2016-07-13 01:42:10,-0.01,0.14,0.00,24.01,28.14,30.99,14.34,42.73,1015.16,2035.55,3479.19,3103.15,3523.09,599.91,593.05,17.08,0000 0000 0000 0000 000000
2016-07-13 01:47:11,-0.02,0.14,0.00,24.04,28.17,31.01,14.34,42.74,1015.18,2035.11,3479.01,3103.01,3523.00,600.03,593.10,17.13,0000 0000 0000 0000 000000
2016-07-13 01:52:12,-0.00,0.14,0.00,24.03,28.20,31.03,14.40,42.86,1015.16,2035.02,3478.99,3102.98,3522.98,599.83,592.89,17.18,0000 0000 0000 0000 000000
2016-07-13 01:57:13,0.01,0.14,0.00,24.06,28.23,31.05,14.39,42.81,1015.16,2035.00,3478.80,3102.83,3522.58,600.17,593.24,17.23,0000 0000 0000 0000 000000
2016-07-13 02:02:14,0.03,0.14,0.00,24.09,28.25,31.06,14.33,42.75,1015.17,2034.99,3478.07,3102.13,3522.02,599.90,592.90,17.28,0000 0000 0000 0000 000000
2016-07-13 02:07:15,-0.00,0.15,0.00,24.10,28.28,31.08,14.26,42.77,1015.17,2034.97,3478.00,3102.00,3521.99,599.91,592.94,17.33,0000 0000 0000 0000 000000
2016-07-13 02:12:17,-0.00,0.14,0.00,24.14,28.30,31.10,14.33,42.73,1015.19,2034.91,3477.99,3101.99,3521.95,600.10,593.01,17.38,0000 0000 0000 0000 000000
2016-07-13 02:17:18,-0.02,0.14,0.00,24.15,28.32,31.12,14.33,42.81,1015.16,2034.67,3477.87,3101.95,3521.42,600.02,592.92,17.43,0000 0000 0000 0000 000000
2016-07-13 02:22:20,-0.01,0.14,0.00,24.19,28.34,31.12,14.37,42.77,1015.18,2034.26,3477.58,3101.85,3521.04,600.06,592.85,17.48,0000 0000 0000 0000 000000
2016-07-13 02:27:21,0.09,0.14,0.00,24.20,28.36,31.13,14.37,42.73,1015.16,2034.07,3476.34,3100.44,3519.94,599.88,592.56,17.53,0000 0000 0000 0000 000000
2016-07-13 02:32:23,0.31,0.16,0.00,24.21,28.37,31.14,14.31,42.76,1015.16,2034.02,3471.33,3094.46,3513.45,599.86,592.59,17.58,0000 0000 0000 0000 000000
2016-07-13 02:37:24,0.00,0.16,0.00,24.25,28.39,31.15,14.33,42.79,1015.16,2034.01,3470.94,3094.00,3512.95,599.81,592.53,17.63,0000 0000 0000 0000 000000
2016-07-13 02:42:25,0.00,0.16,0.00,24.28,28.40,31.16,14.43,42.81,1015.16,2034.00,3470.74,3094.00,3512.71,600.29,593.00,17.68,0000 0000 0000 0000 000000
2016-07-13 02:47:26,0.02,0.16,0.00,24.27,28.42,31.17,14.37,42.80,1015.17,2034.00,3470.21,3093.97,3512.16,599.91,592.54,17.73,0000 0000 0000 0000 000000
2016-07-13 02:52:28,0.00,0.16,0.00,24.31,28.42,31.17,14.37,42.84,1015.17,2034.00,3470.01,3093.74,3512.01,600.03,592.62,17.78,0000 0000 0000 0000 000000
2016-07-13 02:57:29,0.01,0.17,0.00,24.31,28.45,31.17,14.26,42.73,1015.17,2034.00,3470.00,3093.23,3512.00,599.65,592.14,17.83,0000 0000 0000 0000 000000
2016-07-13 03:02:31,0.00,0.17,0.00,24.32,28.45,31.19,14.32,42.80,1015.17,2033.98,3469.98,3093.03,3511.98,600.19,592.68,17.88,0000 0000 0000 0000 000000
2016-07-13 03:07:32,0.00,0.17,0.00,24.37,28.47,31.18,14.37,42.89,1015.16,2033.96,3469.96,3093.01,3511.89,599.99,592.40,17.93,0000 0000 0000 0000 000000
2016-07-13 03:12:33,0.00,0.17,0.00,24.38,28.47,31.18,14.35,42.88,1015.16,2033.88,3469.60,3092.92,3511.50,599.87,592.30,17.98,0000 0000 0000 0000 000000
2016-07-13 03:17:35,0.10,0.17,0.00,24.40,28.48,31.20,14.30,42.83,1015.16,2033.82,3468.14,3091.20,3509.36,599.88,592.28,18.03,0000 0000 0000 0000 000000
2016-07-13 03:22:36,0.00,0.17,0.00,24.41,28.50,31.20,14.33,42.81,1015.15,2033.71,3467.76,3091.00,3509.00,600.22,592.56,18.08,0000 0000 0000 0000 000000
2016-07-13 03:27:37,-0.00,0.17,0.00,24.42,28.50,31.21,14.39,42.79,1015.16,2033.54,3467.19,3090.94,3508.98,600.08,592.38,18.13,0000 0000 0000 0000 000000
2016-07-13 03:32:38,-0.02,0.17,0.00,24.45,28.51,31.22,14.25,42.67,1015.16,2033.26,3467.02,3090.73,3508.92,599.77,592.04,18.18,0000 0000 0000 0000 000000
2016-07-13 03:37:40,0.01,0.17,0.00,24.46,28.52,31.21,14.27,42.84,1015.16,2033.20,3467.01,3090.46,3508.73,600.02,592.28,18.23,0000 0000 0000 0000 000000
2016-07-13 03:42:41,-0.00,0.17,0.00,24.48,28.52,31.23,14.32,42.81,1015.16,2033.16,3467.00,3090.21,3508.50,600.14,592.42,18.28,0000 0000 0000 0000 000000
2016-07-13 03:47:42,0.01,0.17,0.00,24.50,28.54,31.22,14.30,42.73,1015.16,2033.09,3467.00,3090.03,3508.10,599.73,591.99,18.33,0000 0000 0000 0000 000000
2016-07-13 03:52:43,-0.00,0.17,0.00,24.50,28.55,31.23,14.38,42.78,1015.16,2033.03,3466.99,3090.01,3508.01,600.16,592.38,18.38,0000 0000 0000 0000 000000
2016-07-13 03:57:44,-0.00,0.17,0.00,24.52,28.55,31.23,14.39,42.79,1015.16,2033.02,3466.98,3090.00,3508.00,600.01,592.18,18.43,0000 0000 0000 0000 000000
2016-07-13 04:02:46,0.00,0.17,0.00,24.52,28.57,31.24,14.36,42.91,1015.16,2033.00,3466.92,3090.00,3508.00,600.26,592.28,18.49,0000 0000 0000 0000 000000
2016-07-13 04:07:47,0.00,0.17,0.00,24.53,28.57,31.24,14.33,42.90,1015.15,2033.00,3466.78,3089.99,3507.99,599.94,592.02,18.54,0000 0000 0000 0000 000000
2016-07-13 04:12:49,0.01,0.17,0.00,24.54,28.58,31.26,14.30,42.79,1015.15,2033.00,3466.60,3089.97,3507.92,599.97,592.06,18.59,0000 0000 0000 0000 000000
2016-07-13 04:17:50,0.00,0.17,0.00,24.55,28.60,31.26,14.32,42.87,1015.15,2033.00,3466.30,3089.97,3507.87,599.91,592.10,18.64,0000 0000 0000 0000 000000
2016-07-13 04:22:51,0.00,0.17,0.00,24.55,28.60,31.26,14.32,42.80,1015.15,2033.00,3466.22,3089.96,3507.91,600.10,592.11,18.69,0000 0000 0000 0000 000000
2016-07-13 04:27:53,0.10,0.17,0.00,24.56,28.61,31.27,14.33,42.77,1015.15,2033.00,3465.35,3088.83,3506.47,600.16,592.21,18.74,0000 0000 0000 0000 000000
2016-07-13 04:32:54,0.01,0.18,0.00,24.59,28.62,31.27,14.32,42.93,1015.15,2033.00,3464.68,3088.00,3505.42,599.86,591.89,18.79,0000 0000 0000 0000 000000
2016-07-13 04:37:56,0.01,0.18,0.00,24.58,28.62,31.28,14.30,42.84,1015.15,2032.98,3464.31,3087.98,3505.15,600.13,592.11,18.84,0000 0000 0000 0000 000000
2016-07-13 04:42:57,0.01,0.18,0.00,24.59,28.64,31.28,14.29,42.80,1015.15,2032.98,3464.13,3087.89,3505.04,600.11,591.91,18.89,0000 0000 0000 0000 000000
2016-07-13 04:47:58,0.00,0.18,0.00,24.59,28.65,31.29,14.32,42.89,1015.15,2032.99,3464.04,3087.78,3505.00,600.14,592.16,18.94,0000 0000 0000 0000 000000
2016-07-13 04:52:59,0.00,0.18,0.00,24.61,28.65,31.29,14.31,42.80,1015.15,2032.99,3464.01,3087.53,3505.00,600.11,592.09,18.99,0000 0000 0000 0000 000000
2016-07-13 04:58:00,0.01,0.18,0.00,24.63,28.66,31.32,14.34,42.82,1015.15,2032.98,3464.00,3087.35,3505.00,599.96,591.96,19.04,0000 0000 0000 0000 000000
2016-07-13 05:03:02,-0.00,0.18,0.00,24.64,28.67,31.31,14.27,42.80,1015.15,2032.95,3464.00,3087.08,3505.00,599.83,591.75,19.09,0000 0000 0000 0000 000000
2016-07-13 05:08:03,-0.02,0.18,0.00,24.63,28.67,31.31,14.39,42.74,1015.15,2032.85,3464.00,3087.02,3504.99,600.07,592.00,19.14,0000 0000 0000 0000 000000
2016-07-13 05:13:04,-0.01,0.18,0.00,24.65,28.67,31.33,14.22,42.94,1015.16,2032.61,3463.98,3087.00,3504.83,599.62,591.56,19.19,0000 0000 0000 0000 000000
2016-07-13 05:18:05,0.01,0.18,0.00,24.67,28.70,31.33,14.30,42.88,1015.16,2032.63,3463.98,3087.00,3504.70,599.94,591.88,19.24,0000 0000 0000 0000 000000
2016-07-13 05:23:06,-0.03,0.18,0.00,24.67,28.70,31.34,14.30,42.92,1015.17,2032.42,3463.93,3087.00,3504.30,600.17,592.01,19.29,0000 0000 0000 0000 000000
2016-07-13 05:28:08,0.01,0.18,0.00,24.67,28.70,31.34,14.34,42.86,1015.19,2032.33,3463.70,3086.99,3504.12,600.19,591.98,19.34,0000 0000 0000 0000 000000
2016-07-13 05:33:09,-0.01,0.18,0.00,24.69,28.72,31.35,14.29,42.61,1015.20,2032.31,3463.56,3086.99,3504.06,600.07,591.86,19.39,0000 0000 0000 0000 000000
2016-07-13 05:38:10,-0.00,0.18,0.00,24.70,28.72,31.35,14.30,42.73,1015.21,2032.13,3463.22,3086.98,3504.01,600.07,591.85,19.44,0000 0000 0000 0000 000000
2016-07-13 05:43:11,-0.00,0.18,0.00,24.70,28.72,31.36,14.32,42.85,1015.22,2032.06,3463.05,3086.94,3504.00,600.05,591.69,19.49,0000 0000 0000 0000 000000
2016-07-13 05:48:12,0.00,0.18,0.00,24.72,28.74,31.36,14.27,42.87,1015.19,2032.02,3463.02,3086.81,3504.00,599.66,591.43,19.54,0000 0000 0000 0000 000000
2016-07-13 05:53:14,0.01,0.18,0.00,24.72,28.75,31.36,14.27,42.71,1015.21,2032.03,3463.00,3086.55,3504.00,600.15,591.92,19.59,0000 0000 0000 0000 000000
2016-07-13 05:58:15,0.00,0.18,0.00,24.73,28.75,31.38,14.24,42.86,1015.21,2032.01,3463.00,3086.17,3503.98,599.43,591.19,19.64,0000 0000 0000 0000 000000
2016-07-13 06:03:16,0.00,0.18,0.00,24.74,28.77,31.39,14.24,42.77,1015.19,2032.00,3463.00,3086.07,3503.90,599.80,591.70,19.69,0000 0000 0000 0000 000000
2016-07-13 06:08:17,0.00,0.18,0.00,24.75,28.77,31.39,14.35,42.75,1015.19,2032.00,3463.00,3086.01,3503.75,599.81,591.48,19.74,0000 0000 0000 0000 000000
2016-07-13 06:13:19,-0.01,0.18,0.00,24.77,28.77,31.39,14.35,42.82,1015.18,2032.00,3462.98,3086.02,3503.69,600.17,591.76,19.79,0000 0000 0000 0000 000000
2016-07-13 06:18:20,0.01,0.18,0.00,24.79,28.80,31.40,14.25,42.79,1015.16,2032.00,3462.97,3086.01,3503.40,599.68,591.35,19.84,0000 0000 0000 0000 000000
2016-07-13 06:23:21,0.00,0.18,0.00,24.80,28.80,31.41,14.31,42.72,1015.16,2032.00,3462.95,3086.00,3503.15,600.27,591.83,19.89,0000 0000 0000 0000 000000
2016-07-13 06:28:22,0.00,0.18,0.00,24.80,28.81,31.41,14.29,42.75,1015.15,2032.00,3462.75,3086.00,3503.08,600.01,591.54,19.94,0000 0000 0000 0000 000000
2016-07-13 06:33:23,0.00,0.18,0.00,24.82,28.82,31.43,14.32,42.77,1015.15,2032.00,3462.34,3085.99,3503.02,599.88,591.54,19.99,0000 0000 0000 0000 000000
2016-07-13 06:38:25,0.00,0.18,0.00,24.82,28.82,31.44,14.33,42.72,1015.16,2031.99,3462.07,3085.98,3503.00,600.02,591.52,20.04,0000 0000 0000 0000 000000
2016-07-13 06:43:26,0.00,0.18,0.00,24.84,28.83,31.43,14.36,42.74,1015.16,2031.99,3462.03,3085.95,3503.00,599.90,591.53,20.09,0000 0000 0000 0000 000000
2016-07-13 06:48:27,0.00,0.18,0.00,24.85,28.85,31.45,14.31,42.75,1015.15,2031.99,3462.01,3085.83,3502.99,600.09,591.55,20.14,0000 0000 0000 0000 000000
2016-07-13 06:53:28,-0.00,0.18,0.00,24.87,28.85,31.46,14.35,42.77,1015.15,2031.99,3462.00,3085.92,3502.99,600.25,591.65,20.19,0000 0000 0000 0000 000000
2016-07-13 06:58:30,0.00,0.18,0.00,24.87,28.85,31.45,14.27,42.69,1015.16,2031.98,3462.00,3085.85,3502.96,600.01,591.34,20.24,0000 0000 0000 0000 000000
2016-07-13 07:03:31,0.01,0.18,0.00,24.88,28.86,31.47,14.31,42.83,1015.16,2031.96,3462.00,3085.60,3502.91,600.06,591.53,20.29,0000 0000 0000 0000 000000
2016-07-13 07:08:32,0.00,0.18,0.00,24.91,28.87,31.48,14.32,42.70,1015.15,2031.96,3462.00,3085.35,3502.86,600.19,591.48,20.34,0000 0000 0000 0000 000000
2016-07-13 07:13:33,0.00,0.18,0.00,24.93,28.87,31.48,14.39,42.73,1015.16,2031.97,3462.00,3085.26,3502.83,600.09,591.42,20.39,0000 0000 0000 0000 000000
2016-07-13 07:18:35,0.00,0.18,0.00,24.95,28.87,31.48,14.24,42.77,1015.17,2031.96,3461.98,3085.14,3502.67,600.10,591.33,20.44,0000 0000 0000 0000 000000
2016-07-13 07:23:36,0.01,0.18,0.00,24.97,28.88,31.48,14.35,42.76,1015.17,2031.96,3461.97,3085.09,3502.37,600.23,591.51,20.49,0000 0000 0000 0000 000000
2016-07-13 07:28:37,0.01,0.18,0.00,25.00,28.90,31.49,14.29,42.65,1015.20,2031.94,3461.82,3085.03,3502.08,599.90,591.18,20.54,0000 0000 0000 0000 000000
2016-07-13 07:33:39,-0.00,0.18,0.00,25.02,28.90,31.49,14.27,42.61,1015.28,2031.93,3461.79,3085.02,3502.08,600.06,591.24,20.59,0000 0000 0000 0000 000000
2016-07-13 07:38:40,-0.00,0.18,0.00,25.04,28.90,31.51,14.31,42.82,1015.39,2031.89,3461.56,3085.02,3502.04,599.86,591.07,20.64,0000 0000 0000 0000 000000
2016-07-13 07:43:41,-0.01,0.18,0.00,25.06,28.90,31.50,14.26,42.67,1015.44,2031.77,3461.13,3085.00,3502.01,600.11,591.28,20.69,0000 0000 0000 0000 000000
2016-07-13 07:48:42,0.01,0.18,0.00,25.09,28.92,31.52,14.25,42.73,1015.48,2031.72,3461.07,3085.00,3502.01,599.98,591.16,20.74,0000 0000 0000 0000 000000
2016-07-13 07:53:43,0.01,0.18,0.00,25.11,28.92,31.52,14.35,42.79,1015.48,2031.83,3461.00,3085.00,3502.00,600.08,591.20,20.79,0000 0000 0000 0000 000000
2016-07-13 07:58:45,-0.02,0.18,0.00,25.12,28.92,31.53,14.32,42.73,1015.54,2031.65,3461.00,3085.00,3501.99,599.92,591.07,20.84,0000 0000 0000 0000 000000
2016-07-13 08:03:46,-0.02,0.18,0.00,25.13,28.93,31.53,14.30,42.73,1015.60,2031.32,3461.00,3084.97,3501.98,600.12,591.25,20.89,0000 0000 0000 0000 000000
2016-07-13 08:08:47,0.00,0.18,0.00,25.14,28.94,31.53,14.31,42.74,1015.62,2031.41,3461.00,3084.97,3501.98,600.20,591.43,20.94,0000 0000 0000 0000 000000
2016-07-13 08:13:49,0.02,0.18,0.00,25.17,28.95,31.53,14.36,42.76,1015.63,2031.49,3460.97,3084.94,3501.97,600.04,591.18,20.99,0000 0000 0000 0000 000000
2016-07-13 08:18:50,0.34,0.19,0.00,25.17,28.95,31.54,14.29,42.67,1015.64,2031.53,3457.58,3081.08,3497.76,599.99,591.16,21.04,0000 0000 0000 0000 000000
2016-07-13 08:23:51,0.01,0.20,0.00,25.17,28.95,31.54,14.30,42.67,1015.64,2031.30,3455.04,3078.09,3494.25,600.35,591.56,21.09,0000 0000 0000 0000 000000
2016-07-13 08:28:52,-0.01,0.20,0.00,25.16,28.95,31.55,14.28,42.61,1015.64,2031.12,3455.00,3078.00,3494.02,599.82,590.80,21.14,0000 0000 0000 0000 000000
2016-07-13 08:33:53,0.19,0.20,0.00,25.17,28.95,31.57,14.27,42.62,1015.64,2031.09,3452.89,3075.54,3491.30,599.76,590.90,21.19,0000 0000 0000 0000 000000
2016-07-13 08:38:55,0.01,0.21,0.00,25.16,28.95,31.58,14.28,42.64,1015.65,2031.11,3451.82,3074.36,3490.01,600.00,591.15,21.24,0000 0000 0000 0000 000000
2016-07-13 08:43:56,0.00,0.21,0.00,25.15,28.95,31.59,14.34,42.64,1015.66,2031.07,3451.64,3074.20,3489.99,600.23,591.42,21.29,0000 0000 0000 0000 000000
2016-07-13 08:48:57,0.02,0.21,0.00,25.15,28.95,31.58,14.27,42.48,1015.66,2031.15,3451.49,3074.22,3489.99,599.85,591.05,21.34,0000 0000 0000 0000 000000
2016-07-13 08:53:58,0.00,0.21,0.00,25.15,28.95,31.59,14.28,42.52,1015.68,2031.17,3451.44,3074.29,3489.99,600.19,591.35,21.39,0000 0000 0000 0000 000000
2016-07-13 08:58:59,0.01,0.21,0.00,25.15,28.95,31.58,14.27,42.63,1015.72,2031.20,3451.15,3074.15,3489.99,599.67,590.89,21.44,0000 0000 0000 0000 000000
2016-07-13 09:04:00,-0.00,0.21,0.00,25.15,28.95,31.57,14.26,42.55,1015.76,2031.15,3451.11,3074.10,3489.99,599.98,591.20,21.49,0000 0000 0000 0000 000000
2016-07-13 09:09:01,0.00,0.21,0.00,25.15,28.95,31.59,14.27,42.65,1015.80,2031.10,3451.07,3074.07,3489.98,599.71,591.15,21.54,0000 0000 0000 0000 000000
2016-07-13 09:14:03,0.03,0.21,0.00,25.15,28.95,31.59,14.25,42.48,1015.85,2031.42,3451.06,3074.15,3489.99,599.69,590.95,21.59,0000 0000 0000 0000 000000
2016-07-13 09:19:04,0.01,0.21,0.00,25.15,28.95,31.57,14.26,42.56,1015.94,2031.46,3451.02,3074.08,3489.98,599.86,591.21,21.64,0000 0000 0000 0000 000000
2016-07-13 09:24:05,-0.03,0.21,0.00,25.15,28.95,31.59,14.30,42.50,1015.91,2031.38,3451.01,3074.04,3489.97,599.97,591.35,21.69,0000 0000 0000 0000 000000
2016-07-13 09:29:06,-0.00,0.21,0.00,25.15,28.95,31.59,14.23,42.61,1015.89,2031.21,3451.00,3074.01,3489.95,599.55,590.76,21.74,0000 0000 0000 0000 000000
2016-07-13 09:34:08,0.01,0.21,0.00,25.15,28.95,31.57,14.27,42.63,1015.81,2031.35,3450.99,3074.01,3489.88,599.70,590.98,21.79,0000 0000 0000 0000 000000
2016-07-13 09:39:09,0.01,0.21,0.00,25.16,28.95,31.59,14.32,42.66,1015.72,2031.32,3450.97,3074.00,3489.62,600.22,591.39,21.84,0000 0000 0000 0000 000000
2016-07-13 09:44:10,-0.01,0.21,0.00,25.15,28.95,31.58,14.25,42.67,1015.85,2031.19,3450.95,3074.00,3489.33,599.77,591.14,21.89,0000 0000 0000 0000 000000
2016-07-13 09:49:11,0.01,0.21,0.00,25.17,28.95,31.58,14.25,42.62,1016.03,2031.31,3450.95,3074.00,3489.45,600.00,591.36,21.94,0000 0000 0000 0000 000000
2016-07-13 09:54:12,0.01,0.21,0.00,25.17,28.95,31.58,14.31,42.56,1016.08,2031.42,3450.98,3074.01,3489.60,600.15,591.49,21.99,0000 0000 0000 0000 000000
2016-07-13 09:59:14,-0.02,0.21,0.00,25.17,28.95,31.59,14.27,42.58,1016.04,2031.29,3450.98,3074.00,3489.31,599.93,591.31,22.04,0000 0000 0000 0000 000000
2016-07-13 10:04:15,0.01,0.21,0.00,25.18,28.95,31.59,14.28,42.71,1016.09,2031.38,3450.96,3074.00,3489.40,599.80,591.17,22.09,0000 0000 0000 0000 000000
2016-07-13 10:09:16,0.01,0.21,0.00,25.17,28.95,31.60,14.29,42.67,1016.10,2031.33,3450.79,3074.00,3489.19,600.12,591.48,22.14,0000 0000 0000 0000 000000
2016-07-13 10:14:17,0.00,0.21,0.00,25.17,28.95,31.59,14.32,42.69,1016.07,2031.28,3450.62,3073.99,3489.10,600.13,591.52,22.19,0000 0000 0000 0000 000000
2016-07-13 10:19:19,0.01,0.21,0.00,25.17,28.95,31.58,14.31,42.56,1016.11,2031.26,3450.14,3073.99,3489.02,600.18,591.56,22.24,0000 0000 0000 0000 000000
2016-07-13 10:24:20,0.00,0.21,0.00,25.19,28.95,31.57,14.31,42.67,1016.12,2031.32,3450.08,3073.97,3489.00,600.25,591.70,22.29,0000 0000 0000 0000 000000
2016-07-13 10:29:21,-0.00,0.21,0.00,25.20,28.95,31.58,14.35,42.56,1016.13,2031.37,3450.08,3073.98,3489.00,600.13,591.40,22.34,0000 0000 0000 0000 000000
2016-07-13 10:34:23,0.00,0.21,0.00,25.19,28.95,31.57,14.29,42.63,1016.13,2031.24,3450.02,3073.96,3489.00,600.07,591.44,22.39,0000 0000 0000 0000 000000
2016-07-13 10:39:24,0.01,0.21,0.00,25.19,28.95,31.59,14.23,42.68,1016.13,2031.30,3450.02,3073.97,3489.00,599.86,591.25,22.44,0000 0000 0000 0000 000000
2016-07-13 10:44:25,-0.01,0.21,0.00,25.19,28.95,31.59,14.30,42.58,1016.13,2031.25,3450.00,3073.87,3489.00,599.91,591.25,22.49,0000 0000 0000 0000 000000
2016-07-13 10:49:26,0.02,0.21,0.00,25.19,28.95,31.58,14.33,42.49,1016.12,2031.25,3449.98,3073.25,3488.82,600.21,591.54,22.54,0000 0000 0000 0000 000000
2016-07-13 10:54:28,0.01,0.21,0.00,25.19,28.95,31.59,14.31,42.48,1016.11,2031.21,3449.70,3073.02,3488.36,599.83,591.22,22.60,0000 0000 0000 0000 000000
2016-07-13 10:59:30,0.01,0.21,0.00,25.17,28.95,31.60,14.22,42.57,1016.13,2031.27,3449.70,3073.03,3488.41,599.83,591.21,22.65,0000 0000 0000 0000 000000
2016-07-13 11:04:31,-0.00,0.21,0.00,25.17,28.95,31.60,14.30,42.51,1016.13,2031.33,3449.67,3073.04,3488.40,599.99,591.39,22.70,0000 0000 0000 0000 000000
2016-07-13 11:09:32,-0.00,0.21,0.00,25.16,28.95,31.58,14.33,42.58,1016.13,2031.15,3449.20,3073.01,3488.10,600.03,591.60,22.75,0000 0000 0000 0000 000000
2016-07-13 11:14:34,0.01,0.21,0.00,25.17,28.95,31.56,14.32,42.62,1016.13,2031.18,3449.06,3073.00,3488.04,600.22,591.69,22.80,0000 0000 0000 0000 000000
2016-07-13 11:19:35,0.01,0.21,0.00,25.18,28.95,31.56,14.26,42.66,1016.13,2031.31,3449.03,3073.00,3488.08,599.96,591.30,22.85,0000 0000 0000 0000 000000
2016-07-13 11:24:36,-0.01,0.21,0.00,25.19,28.95,31.55,14.26,42.58,1016.13,2031.29,3449.03,3073.01,3488.05,599.97,591.47,22.90,0000 0000 0000 0000 000000
2016-07-13 11:29:38,0.00,0.21,0.00,25.18,28.95,31.56,14.26,42.55,1016.13,2031.31,3449.01,3073.00,3488.02,599.89,591.27,22.95,0000 0000 0000 0000 000000
2016-07-13 11:34:39,0.02,0.22,0.00,25.17,28.95,31.59,14.26,42.63,1016.13,2031.49,3449.01,3073.01,3488.04,599.93,591.33,23.00,0000 0000 0000 0000 000000
2016-07-13 11:39:40,0.03,0.22,0.00,25.17,28.95,31.59,14.32,42.56,1016.13,2031.42,3448.65,3072.44,3487.54,600.16,591.55,23.05,0000 0000 0000 0000 000000
2016-07-13 11:44:42,-0.01,0.22,0.00,25.16,28.95,31.61,14.22,42.62,1016.13,2031.18,3448.14,3072.04,3487.08,599.92,591.35,23.10,0000 0000 0000 0000 000000
2016-07-13 11:49:43,0.06,0.22,0.00,25.15,28.95,31.61,14.32,42.63,1016.13,2031.19,3447.68,3071.65,3486.42,600.05,591.52,23.15,0000 0000 0000 0000 000000
2016-07-13 11:54:44,0.02,0.22,0.00,25.13,28.95,31.60,14.32,42.56,1016.13,2031.21,3446.99,3070.98,3485.08,600.14,591.65,23.20,0000 0000 0000 0000 000000
2016-07-13 11:59:46,0.01,0.22,0.00,25.12,28.95,31.61,14.24,42.65,1016.13,2031.24,3446.96,3070.92,3485.03,600.02,591.56,23.25,0000 0000 0000 0000 000000
2016-07-13 12:04:47,0.00,0.22,0.00,25.11,28.94,31.60,14.17,42.52,1016.13,2031.22,3446.89,3070.90,3485.01,599.86,591.45,23.30,0000 0000 0000 0000 000000
2016-07-13 12:09:48,0.00,0.22,0.00,25.10,28.93,31.60,14.25,42.62,1016.13,2031.29,3446.90,3070.91,3485.02,599.61,591.22,23.35,0000 0000 0000 0000 000000
2016-07-13 12:14:50,0.02,0.22,0.00,25.08,28.92,31.60,14.26,42.52,1016.13,2031.49,3446.92,3070.93,3485.03,600.03,591.73,23.40,0000 0000 0000 0000 000000
2016-07-13 12:19:51,-0.01,0.22,0.00,25.07,28.92,31.59,14.28,42.52,1016.14,2031.45,3446.92,3070.96,3485.04,599.80,591.51,23.45,0000 0000 0000 0000 000000
2016-07-13 12:24:52,-0.01,0.22,0.00,25.07,28.92,31.60,14.30,42.37,1016.13,2031.39,3446.78,3070.92,3485.01,600.11,591.77,23.50,0000 0000 0000 0000 000000
2016-07-13 12:29:53,0.00,0.22,0.00,25.06,28.92,31.59,14.36,42.53,1016.13,2031.37,3446.91,3070.94,3485.01,600.14,591.77,23.55,0000 0000 0000 0000 000000
2016-07-13 12:34:55,0.03,0.22,0.00,25.05,28.91,31.58,14.28,42.48,1016.13,2031.60,3446.96,3070.97,3485.04,599.94,591.58,23.60,0000 0000 0000 0000 000000
2016-07-13 12:39:56,0.00,0.22,0.00,25.04,28.90,31.57,14.30,42.43,1016.13,2031.73,3446.96,3070.98,3485.10,600.17,591.83,23.65,0000 0000 0000 0000 000000
2016-07-13 12:44:58,0.00,0.22,0.00,25.02,28.90,31.57,14.33,42.31,1016.13,2031.77,3446.96,3070.98,3485.14,600.30,592.01,23.70,0000 0000 0000 0000 000000
2016-07-13 12:49:59,0.00,0.22,0.00,25.01,28.90,31.58,14.35,42.38,1016.13,2031.85,3446.95,3070.98,3485.15,600.13,591.95,23.75,0000 0000 0000 0000 000000
2016-07-13 12:55:00,0.00,0.22,0.00,25.00,28.90,31.58,14.31,42.29,1016.13,2031.85,3446.96,3070.99,3485.22,600.15,591.94,23.80,0000 0000 0000 0000 000000